sat.trackr.live / text

‹ back to catalog

STARLINK-30333

NORAD 57702 · 2023-129E

PAYLOAD ACTIVE UNKNOWN

§ Identity

Operator
Country
US
Launch date
2023-08-27
Launch site
AFETR
Launch vehicle
Mass (kg)
RCS (m²)

Purposes: comms

External: N2YO · Heavens-Above · Gunter

§ Orbital elements

Epoch: 2026-05-25T02:34:22.024704Z

Period
94.27 min
Inclination
43.0051°
Eccentricity
0.0001036
Mean motion
15.27585647 rev/d
Perigee alt
482.3 km
Apogee alt
483.7 km
Semi-major
6,861.2 km
B*
2.7416e-5
RAAN
46.0011°
Arg perigee
268.9069°
Mean anomaly
91.1665°
Rev number
15,237

§ Raw data

STARLINK-303331 57702U 23129E   26145.10719936  .00000493  00000+0  27416-4 0  99912 57702  43.0051  46.0011 0001036 268.9069  91.1665 15.27585647152374

JSON: /api/v1/satellites/57702 · /tle

For live sub-satellite position, see the globe view (requires WebGL).

§ Visibility from observer

Set your observer location to see the next 7 days of passes ≥ 10°. The values pass through the URL so the page stays shareable.

No JS? Fill the form by hand. The geolocation button needs JavaScript.